YAOGAN-26

Last updated on Mon Sep 07 2026 00:02:45 GMT+0000 (Coordinated Universal Time)

1 40362U 14088A 26249.59985454 .00014282 00000+0 25250-3 0 9991 2 40362 97.0690 248.0986 0006142 99.3942 260.8005 15.50410181650305
UTC large
Height (km)
Speed (km/s)
/
Latitude / Longitude
Inclination (degrees)
Orbital Period (minutes)
Azimuth
Elevation
Range (km)
Doppler Factor

Next 0 passes for location: London (51.5072 / 0.1276)

No passes found over London.
YAOGAN-26